Home > Weather > Cornwall > Past weeks

Flag for Canada Weather for the Past 2 Weeks in Cornwall, Ontario, Canada

Now
0 °F

Frigid.


Feels Like: -16 °F
Forecast: -13 / 10 °F
Wind: 10 mph from West

Location: St Anicet

Current Time: Feb 13, 2016 at 5:10:05 AM

Latest Report: Feb 13, 2016 at 4:00 AM


Visibility: N/A

Pressure: 29.95 "Hg

Humidity: 79%

Dew point: -5 °F

Location of CornwallLocation

Historic Weather in Cornwall — Graph

°F

Cornwall Temperature Yesterday

Maximum temperature yesterday: 23 °F (at 4:00 PM)
Minimum temperature yesterday: -9 °F (at 7:00 AM)
Average temperature yesterday: 9 °F

High & Low Weather Summary for the Past Weeks

 TemperatureHumidityPressure
High52 °F (Feb 1, 4:00 AM)100% (Jan 29, 10:00 AM)30.43 "Hg (Jan 29, 10:00 AM)
Low-9 °F (Feb 12, 7:00 AM)50% (Feb 2, 4:00 PM)29.38 "Hg (Feb 1, 3:00 AM)
Average25 °F80%29.91 "Hg
* Reported Jan 29 4:00 AM — Feb 13 4:00 AM, Cornwall, Weather by CustomWeather, © 2016

Note: Actual official high and low records may vary slightly from our data, if they occured in-between our weather recording intervals... More about our weather records

Advertising

Cornwall Weather History for the Previous 24 Hours

 ConditionsComfort  
Time TempWeatherWind HumidityBarometerVisibility
4:00 AM
Sat, Feb 13
0 °FFrigid.10 mph79%29.95 "HgN/A
3:00 AM5 °FFrigid.9 mph80%29.91 "HgN/A
2:00 AM7 °FFrigid.10 mph83%29.89 "HgN/A
1:00 AM9 °FFrigid.9 mph89%29.86 "HgN/A
12:00 AM13 °FCold.8 mph93%29.84 "HgN/A
11:00 PM
Fri, Feb 12
14 °FCold.9 mph100%29.81 "HgN/A
10:00 PM17 °FCold.7 mph95%29.79 "HgN/A
9:00 PM19 °FCold.10 mph95%29.77 "HgN/A
8:00 PM19 °FCold.10 mph96%29.79 "HgN/A
7:00 PM19 °FCold.9 mph95%29.81 "HgN/A
6:00 PM20 °FCold.7 mph93%29.82 "HgN/A
5:00 PM22 °FCold.13 mph69%29.82 "HgN/A
4:00 PM23 °FCold.8 mph63%29.84 "HgN/A
3:00 PM21 °FCold.9 mph73%29.86 "HgN/A
2:00 PM21 °FCold.9 mph65%29.88 "HgN/A
1:00 PM22 °FCold.10 mph56%29.92 "HgN/A
12:00 PM19 °FCold.7 mph58%29.96 "HgN/A
11:00 AM14 °FCold.7 mph59%30.01 "HgN/A
10:00 AM9 °FFrigid.7 mph58%30.05 "HgN/A
9:00 AM4 °FFrigid.3 mph63%30.08 "HgN/A
8:00 AM-2 °FFrigid.2 mph72%30.10 "HgN/A
7:00 AM-9 °FFrigid.3 mph83%30.13 "HgN/A
6:00 AM-8 °FFrigid.1 mph77%30.15 "HgN/A
5:00 AM-6 °FFrigid.3 mph77%30.15 "HgN/A
Weather by CustomWeather, © 2016

See weather overviewHow to use our weather pages